Regional Weather Roundup
Issued by NWS Green Bay, WI

Home | Current Version | Previous Version | Text Only | Print | Product List | Glossary On
Versions: 1 2 3 4 5 6 7 8 9 10 11 12 13 14 15 16 17 18 19 20 21 22 23 24 25 26 27 28 29 30 31 32 33 34 35 36 37 38 39 40 41 42 43 44 45 46 47 48 49 50
000
ASUS43 KGRB 241511
RWRGRB

NORTH-CENTRAL AND NORTHEAST WISCONSIN REGIONAL WEATHER ROUNDUP
NATIONAL WEATHER SERVICE GREEN BAY WI
900 AM CST SAT FEB 24 2018

WIZ005-009-010>012-018-019-241600-
NORTH CENTRAL WISCONSIN

CITY           SKY/WX    TMP DP  RH WIND       PRES   REMARKS
IRONWOOD       CLOUDY    19  18  93 CALM      30.17S FOG
MANITOWISH WTR LGT SNOW  11  11  99 CALM      30.14F
ARBOR VITAE    CLOUDY    17  14  90 CALM      30.14F FOG
EAGLE RIVER    FOG       16  14  91 S3        30.15S VSB 1/4
LAND O LAKES   CLOUDY    16  14  93 CALM      30.17S FOG
RHINELANDER    FOG       13  12  96 SE3       30.15F VSB 1/2
PHILLIPS       LGT SNOW  11  10  95 CALM      30.14F
ANTIGO         FAIR      13  11  94 CALM      30.16F FOG
TOMAHAWK       CLOUDY    13  10  90 CALM      30.16F FOG
MERRILL        FOG       15  14  93 CALM      30.17F VSB 1/4
$$

WIZ013-073-241600-
NORTHEAST WISCONSIN

CITY           SKY/WX    TMP DP  RH WIND       PRES   REMARKS
IRON MOUNTAIN  CLOUDY    25  21  85 CALM      30.18S
MARINETTE      NOT AVBL
OCONTO         CLOUDY    31  23  71 SE7       30.22F
$$

WIZ017-030-035>037-045-241600-
CENTRAL WISCONSIN

CITY           SKY/WX    TMP DP  RH WIND       PRES   REMARKS
MEDFORD        FAIR      12  10  89 CALM      30.13F FOG
WAUSAU         FAIR      20  17  88 E3        30.15F FOG
MOSINEE        MOSUNNY   19  19 100 NE3       30.16F FOG
MARSHFIELD     FOG       19  17  92 E6        30.13F VSB 1/4
WISC RAPIDS    FAIR      24  19  81 E6        30.16F HAZE
STEVENS POINT  FAIR      22  22 100 CALM      30.16F FOG
WAUPACA        FAIR      31  26  81 E5        30.19F
SHAWANO        FAIR      29  24  82 CALM      30.20F
CLINTONVILLE   FAIR      28  23  82 NE6       30.20F
WAUTOMA        FAIR      28  23  81 E8        30.18
$$

WIZ038-039-048-051-241600-
FOX VALLEY

CITY           SKY/WX    TMP DP  RH WIND       PRES   REMARKS
NWS GREEN BAY  FAIR      32  22  66 E10       30.22S
APPLETON       MOSUNNY   30  21  69 E10       30.17F
OSHKOSH        FAIR      30  24  78 E7        30.18F
FOND DU LAC    FAIR      32  23  69 E9        30.19F
$$

WIZ022-050-052-241600-
EAST CENTRAL WISCONSIN

CITY           SKY/WX    TMP DP  RH WIND       PRES   REMARKS
EPHRAIM        FAIR      32  22  66 SE7       30.22S
WASHINGTON ISL CLOUDY    32  24  71 S6        30.23S
STURGEON BAY   CLOUDY    32  23  69 E8        30.23F
MANITOWOC      CLOUDY    32  24  72 E12       30.21F
SHEBOYGAN      CLOUDY    32  26  78 E8        30.21R
$$

LMZ563-521-522-541>543-241600-
LAKESHORE

STATION/POSITION TIME  TEMP    WIND        PRES    VSBY  WAVE
                       AIR SEA DIR/SP/G                  HT/PER
                 (UTC) (F)     (DEG/KT/KT) (MB)    (MI)  (FT/S)
SHEBOYGAN LKSHOR 1500   33      80/ 12/ 13 1023.8F
KEWAUNEE LKSHORE 1442   33     110/  5/ 10 1022.9F
NORTHPORT PIER   1440   33                 1023.7S
SISTER BAY LKSHO 1420   42        CALM       N/A
MENOMINEE LKSHOR 1442   31     130/  5/  6 1023.4F
$$



USA.gov is the U.S. government's official web portal to all federal, state and local government web resources and services.